Regional Weather Roundup
Issued by NWS Albany, NY

Home | Current Version | Previous Version | Text Only | Print | Product List | Glossary On
Versions: 1 2 3 4 5 6 7 8 9 10 11 12 13 14 15 16 17 18 19 20 21 22 23 24 25 26 27 28
000
ASUS41 KALY 232310
RWRALY

NEW YORK STATE HOURLY WEATHER ROUNDUP
NATIONAL WEATHER SERVICE ALBANY NY
700 PM EDT SAT JUL 23 2016

NOTE: "FAIR" INDICATES FEW OR NO CLOUDS BELOW 12,000 FEET WITH NO
SIGNIFICANT WEATHER AND/OR NO OBSTRUCTIONS TO VISIBILITY.

NYZ032-033-038>043-046>054-057>066-NYZ062>081-082-084-240000-
EAST


CITY           SKY/WX    TMP DP  RH WIND       PRES   REMARKS
ALBANY         TSTM      73  61  65 NW15G30   29.89R
GLENS FALLS    LGT RAIN  67  63  87 NE3       29.88S
POUGHKEEPSIE   SUNNY     92  56  29 NW12G23   29.80R HX  90
NEWBURGH       MOSUNNY   93  55  27 W16G26    29.83  HX  91
MONTGOMERY     MOSUNNY   90  59  35 N12       29.83R
WHITE PLAINS   MOSUNNY   92  51  24 NW13      29.81R
ISLIP          MOSUNNY   93  53  25 W10       29.79R HX  90
NEW YORK CITY  MOSUNNY   96  57  27 SW12      29.78R HX  95
CENTRAL PARK   MOSUNNY   91  60  35 MISG      29.82R HX  90
$$

NYZ005>009-017-018-044>046-055-056-240000-
CENTRAL


CITY           SKY/WX    TMP DP  RH WIND       PRES   REMARKS
FULTON         MOSUNNY   86  60  41 W9        29.89R
SYRACUSE       MOSUNNY   85  59  41 W18       29.88R
ROME           TSTM      70  67  90 SW12G32   29.91R FOG
ELMIRA         MOSUNNY   89  49  25 N12G18    29.91R
BINGHAMTON     SUNNY     83  56  39 N18       29.95R
MONTICELLO     SUNNY     82  57  42 NW13G21   29.92R
$$

NYZ026>034-041>043-087-240000-
NORTH


CITY           SKY/WX    TMP DP  RH WIND       PRES   REMARKS
WATERTOWN      MOSUNNY   80  67  64 SW5       29.86S
FORT DRUM      NOT AVBL
MASSENA        CLOUDY    72  64  76 S6        29.88S
SARANAC LAKE   MOSUNNY   69  57  65 VRB6      29.91S
PLATTSBURGH    PTSUNNY   70  64  81 S3        29.86S
$$

NYZ001>004-010>016-019>021-085-240000-
WEST


CITY           SKY/WX    TMP DP  RH WIND       PRES   REMARKS
NIAGARA FALLS  MOSUNNY   91  53  27 NW9       29.90F
BUFFALO        MOSUNNY   85  62  46 SW15      29.92S
DUNKIRK        SUNNY     84  60  44 SW13      29.94F
JAMESTOWN      SUNNY     82  57  42 NW10      30.01S
WELLSVILLE     SUNNY     84  53  34 NW16G22   30.01S
ROCHESTER      MOSUNNY   88  55  32 NW14G23   29.92R
PENN YAN       SUNNY     87  53  31 NW10G21   29.94R
$$

             KEY
       WCI = WIND CHILL INDEX
       VSB = VISIBILITY
       HX  = HEAT INDEX
$$




USA.gov is the U.S. government's official web portal to all federal, state and local government web resources and services.